BAW9021 EGLL-EGPH

Flight info

Callsign BAW9021
Flight time 1h 10m
Altitude 50300
Route EGLL DCT BPK DCT BRAIN DCT CLN DCT RATLO DCT PIXAM DCT ENITO DCT BEKMO DCT GIVPO DCT ROKAN DCT ROLUM DCT ASKAM DCT TIMUP DCT CUTEL DCT 5652N00230E DCT 5551N00040E DCT 5652N00230E DCT FORTY DCT ADN DCT PTH DCT GRICE DCT STIRA DCT EGPH
Aircraft CONC/M-V/N

Departure

Time 2026-05-05 19:37
Airport London Heathrow Airport (EGLL)

Arrival

Time 2026-05-05 20:47
Airport Edinburgh Airport (EGPH)
Time Latitude Longitude Altitude Speed Heading
2026-05-05 18:53 51.46187 -0.44158 95 ft 0 kts 112°
2026-05-05 19:15 51.46191 -0.44173 95 ft 4 kts 112°
2026-05-05 19:15 51.46201 -0.44210 95 ft 2 kts 113°
2026-05-05 19:16 51.46205 -0.44247 95 ft 4 kts 79°
2026-05-05 19:16 51.46192 -0.44278 95 ft 4 kts 37°
2026-05-05 19:16 51.46170 -0.44298 95 ft 2 kts 23°
2026-05-05 19:16 51.46165 -0.44302 95 ft 0 kts 23°
2026-05-05 19:19 51.46165 -0.44301 95 ft 0 kts 23°
2026-05-05 19:20 51.46168 -0.44299 95 ft 2 kts 23°
2026-05-05 19:20 51.46197 -0.44279 95 ft 7 kts 23°
2026-05-05 19:20 51.46257 -0.44238 95 ft 12 kts 23°
2026-05-05 19:21 51.46321 -0.44259 95 ft 12 kts 290°
2026-05-05 19:21 51.46327 -0.44417 95 ft 17 kts 270°
2026-05-05 19:21 51.46327 -0.44632 95 ft 22 kts 269°
2026-05-05 19:21 51.46325 -0.44895 95 ft 25 kts 269°
2026-05-05 19:22 51.46325 -0.45180 95 ft 27 kts 270°
2026-05-05 19:22 51.46325 -0.45518 95 ft 30 kts 270°
2026-05-05 19:22 51.46327 -0.45778 95 ft 24 kts 270°
2026-05-05 19:22 51.46325 -0.46060 95 ft 27 kts 270°
2026-05-05 19:23 51.46324 -0.46319 95 ft 23 kts 270°
2026-05-05 19:23 51.46324 -0.46586 95 ft 24 kts 269°
2026-05-05 19:23 51.46323 -0.46870 95 ft 27 kts 270°
2026-05-05 19:23 51.46321 -0.47158 95 ft 23 kts 270°
2026-05-05 19:24 51.46321 -0.47287 95 ft 0 kts 272°
2026-05-05 19:26 51.46321 -0.47291 95 ft 2 kts 272°
2026-05-05 19:30 51.46323 -0.47316 95 ft 5 kts 278°
2026-05-05 19:30 51.46333 -0.47394 95 ft 10 kts 282°
2026-05-05 19:31 51.46339 -0.47529 95 ft 15 kts 270°
2026-05-05 19:31 51.46309 -0.47711 95 ft 20 kts 243°
2026-05-05 19:31 51.46252 -0.47933 95 ft 24 kts 263°
2026-05-05 19:31 51.46252 -0.48211 95 ft 24 kts 270°
2026-05-05 19:32 51.46251 -0.48474 95 ft 21 kts 270°
2026-05-05 19:32 51.46276 -0.48662 95 ft 9 kts 303°
2026-05-05 19:32 51.46289 -0.48686 95 ft 0 kts 315°
2026-05-05 19:33 51.46290 -0.48688 95 ft 1 kts 315°
2026-05-05 19:34 51.46312 -0.48715 95 ft 7 kts 327°
2026-05-05 19:34 51.46363 -0.48748 95 ft 9 kts 348°
2026-05-05 19:34 51.46441 -0.48749 95 ft 13 kts 11°
2026-05-05 19:35 51.46481 -0.48655 95 ft 0 kts 89°
2026-05-05 19:36 51.46481 -0.48653 95 ft 1 kts 89°
2026-05-05 19:36 51.46480 -0.48552 95 ft 42 kts 91°
2026-05-05 19:36 51.46482 -0.47379 95 ft 166 kts 88°
2026-05-05 19:36 51.46487 -0.45026 381 ft 242 kts 89°
2026-05-05 19:37 51.46480 -0.42216 1591 ft 252 kts 89°
2026-05-05 19:37 51.46565 -0.39545 2907 ft 222 kts 74°
2026-05-05 19:37 51.47073 -0.37270 3577 ft 220 kts 56°
2026-05-05 19:37 51.47939 -0.35161 3977 ft 233 kts 52°
2026-05-05 19:38 51.48946 -0.32996 4455 ft 254 kts 51°
2026-05-05 19:38 51.50066 -0.30704 5326 ft 261 kts 50°
2026-05-05 19:38 51.51217 -0.28390 5905 ft 270 kts 50°
2026-05-05 19:38 51.52392 -0.26026 5999 ft 270 kts 50°
2026-05-05 19:39 51.53568 -0.23660 6004 ft 270 kts 51°
2026-05-05 19:39 51.54734 -0.21311 6007 ft 270 kts 50°
2026-05-05 19:39 51.56021 -0.19116 5995 ft 270 kts 31°
2026-05-05 19:39 51.57722 -0.17876 6018 ft 269 kts 22°
2026-05-05 19:40 51.59437 -0.16684 6018 ft 269 kts 25°
2026-05-05 19:40 51.61132 -0.15377 6019 ft 269 kts 26°
2026-05-05 19:40 51.62811 -0.14042 6019 ft 269 kts 27°
2026-05-05 19:40 51.64484 -0.12689 6020 ft 270 kts 27°
2026-05-05 19:41 51.66153 -0.11319 6020 ft 269 kts 27°
2026-05-05 19:41 51.67821 -0.09934 6022 ft 270 kts 27°
2026-05-05 19:41 51.69323 -0.08677 6022 ft 270 kts 28°
2026-05-05 19:41 51.71008 -0.07250 6023 ft 270 kts 28°
2026-05-05 19:42 51.72650 -0.05818 6021 ft 269 kts 34°
2026-05-05 19:42 51.73884 -0.03588 6135 ft 272 kts 69°
2026-05-05 19:42 51.74227 -0.00528 7515 ft 295 kts 85°
2026-05-05 19:42 51.74371 0.03204 8966 ft 369 kts 84°
2026-05-05 19:43 51.74688 0.07485 10838 ft 393 kts 79°
2026-05-05 19:43 51.75162 0.11787 13158 ft 400 kts 79°
2026-05-05 19:43 51.75698 0.16392 14701 ft 434 kts 78°
2026-05-05 19:43 51.76286 0.21336 15762 ft 463 kts 79°
2026-05-05 19:44 51.76906 0.26589 16985 ft 491 kts 79°
2026-05-05 19:44 51.77546 0.32122 18526 ft 508 kts 79°
2026-05-05 19:44 51.77968 0.35858 19850 ft 515 kts 79°
2026-05-05 19:44 51.78822 0.43631 22589 ft 534 kts 80°
2026-05-05 19:45 51.79448 0.49528 24321 ft 535 kts 81°
2026-05-05 19:45 51.80059 0.55500 25663 ft 549 kts 81°
2026-05-05 19:45 51.80475 0.59720 26357 ft 566 kts 82°
2026-05-05 19:45 51.81074 0.66056 26919 ft 572 kts 82°
2026-05-05 19:46 51.81628 0.72415 27036 ft 571 kts 83°
2026-05-05 19:46 51.82133 0.78698 27035 ft 571 kts 84°
2026-05-05 19:46 51.82621 0.85065 27033 ft 570 kts 84°
2026-05-05 19:46 51.83096 0.91445 27032 ft 570 kts 84°
2026-05-05 19:47 51.83566 0.97798 27032 ft 570 kts 84°
2026-05-05 19:47 51.84036 1.04164 27031 ft 569 kts 84°
2026-05-05 19:47 51.84533 1.10502 27030 ft 569 kts 81°
2026-05-05 19:47 51.85489 1.16729 27030 ft 570 kts 72°
2026-05-05 19:48 51.86840 1.22751 27032 ft 571 kts 69°
2026-05-05 19:48 51.88367 1.28693 27032 ft 571 kts 67°
2026-05-05 19:48 51.89965 1.34584 27030 ft 572 kts 66°
2026-05-05 19:48 51.91594 1.40459 27028 ft 572 kts 66°
2026-05-05 19:49 51.93233 1.46329 27027 ft 572 kts 66°
2026-05-05 19:49 51.94870 1.52197 27026 ft 572 kts 66°
2026-05-05 19:49 51.96502 1.58083 27025 ft 573 kts 67°
2026-05-05 19:49 51.98128 1.63983 27024 ft 573 kts 66°
2026-05-05 19:50 51.99834 1.69826 27023 ft 573 kts 65°
2026-05-05 19:50 52.01613 1.75621 27022 ft 574 kts 64°
2026-05-05 19:50 52.03465 1.81367 27022 ft 574 kts 63°
2026-05-05 19:50 52.05369 1.87090 27025 ft 575 kts 62°
2026-05-05 19:51 52.07097 1.91638 27013 ft 576 kts 53°
2026-05-05 19:51 52.09942 1.96351 27074 ft 600 kts 36°
2026-05-05 19:51 52.13586 1.99691 28280 ft 598 kts 25°
2026-05-05 19:51 52.17388 2.02471 29806 ft 603 kts 24°
2026-05-05 19:52 52.21283 2.05168 30448 ft 614 kts 22°
2026-05-05 19:52 52.25240 2.07833 31235 ft 614 kts 22°
2026-05-05 19:52 52.29185 2.10461 32251 ft 609 kts 22°
2026-05-05 19:52 52.33092 2.13060 33153 ft 603 kts 22°
2026-05-05 19:53 52.36974 2.15648 33754 ft 597 kts 22°
2026-05-05 19:53 52.40775 2.18198 34294 ft 595 kts 22°
2026-05-05 19:53 52.44636 2.20820 34460 ft 596 kts 22°
2026-05-05 19:53 52.48432 2.23455 34831 ft 589 kts 23°
2026-05-05 19:54 52.52186 2.26134 35317 ft 591 kts 24°
2026-05-05 19:54 52.55986 2.28892 35365 ft 603 kts 24°
2026-05-05 19:54 52.59846 2.31726 35629 ft 609 kts 24°
2026-05-05 19:54 52.63738 2.34600 35784 ft 625 kts 24°
2026-05-05 19:55 52.67810 2.37608 35780 ft 658 kts 24°
2026-05-05 19:55 52.72122 2.40774 35912 ft 702 kts 24°
2026-05-05 19:55 52.76707 2.44181 36768 ft 732 kts 24°
2026-05-05 19:55 52.81410 2.47753 37997 ft 764 kts 24°
2026-05-05 19:56 52.86340 2.51583 38681 ft 802 kts 25°
2026-05-05 19:56 52.91485 2.55723 39637 ft 839 kts 26°
2026-05-05 19:56 52.96824 2.60120 40512 ft 878 kts 26°
2026-05-05 19:56 53.02422 2.64800 41289 ft 918 kts 26°
2026-05-05 19:57 53.08228 2.69704 42052 ft 956 kts 26°
2026-05-05 19:57 53.14190 2.74776 42752 ft 992 kts 26°
2026-05-05 19:57 53.20524 2.80182 43483 ft 1020 kts 26°
2026-05-05 19:57 53.26802 2.85543 44207 ft 1037 kts 26°
2026-05-05 19:58 53.33384 2.90760 44882 ft 1049 kts 21°
2026-05-05 19:58 53.40250 2.94999 45507 ft 1060 kts 17°
2026-05-05 19:58 53.47353 2.98642 46148 ft 1072 kts 15°
2026-05-05 19:58 53.54602 3.01966 46799 ft 1085 kts 13°
2026-05-05 19:59 53.61963 3.05089 47517 ft 1098 kts 13°
2026-05-05 19:59 53.69442 3.08082 48194 ft 1111 kts 12°
2026-05-05 19:59 53.77033 3.10977 48832 ft 1125 kts 11°
2026-05-05 19:59 53.84727 3.13790 49446 ft 1138 kts 11°
2026-05-05 20:00 53.92530 3.16538 50022 ft 1152 kts 11°
2026-05-05 20:00 54.00468 3.19238 50394 ft 1162 kts 10°
2026-05-05 20:00 54.08374 3.21839 50540 ft 1164 kts 10°
2026-05-05 20:00 54.16352 3.24375 50691 ft 1165 kts
2026-05-05 20:01 54.24335 3.26714 50839 ft 1165 kts
2026-05-05 20:01 54.32390 3.28137 50991 ft 1165 kts
2026-05-05 20:01 54.40495 3.28835 51142 ft 1165 kts
2026-05-05 20:01 54.48620 3.28821 51290 ft 1164 kts 355°
2026-05-05 20:02 54.56679 3.27598 51442 ft 1163 kts 351°
2026-05-05 20:02 54.64643 3.25132 51593 ft 1162 kts 346°
2026-05-05 20:02 54.72382 3.21666 51743 ft 1162 kts 342°
2026-05-05 20:02 54.80103 3.17542 51894 ft 1162 kts 341°
2026-05-05 20:03 54.87751 3.13037 52045 ft 1162 kts 340°
2026-05-05 20:03 54.95358 3.08267 52195 ft 1162 kts 339°
2026-05-05 20:03 55.02944 3.03291 52346 ft 1162 kts 338°
2026-05-05 20:03 55.10480 2.98170 52497 ft 1162 kts 338°
2026-05-05 20:04 55.17976 2.92927 52647 ft 1162 kts 337°
2026-05-05 20:04 55.25459 2.87557 52798 ft 1162 kts 336°
2026-05-05 20:04 55.32916 2.82081 52949 ft 1162 kts 336°
2026-05-05 20:04 55.40356 2.76499 53099 ft 1162 kts 336°
2026-05-05 20:05 55.47768 2.70825 53250 ft 1162 kts 335°
2026-05-05 20:05 55.55166 2.65050 53400 ft 1162 kts 335°
2026-05-05 20:05 55.62530 2.59190 53551 ft 1162 kts 335°
2026-05-05 20:05 55.69979 2.53596 53699 ft 1162 kts 340°
2026-05-05 20:06 55.77678 2.49148 53851 ft 1163 kts 345°
2026-05-05 20:06 55.85568 2.45937 54001 ft 1165 kts 350°
2026-05-05 20:06 55.93568 2.43622 54155 ft 1166 kts 349°
2026-05-05 20:06 56.01518 2.40784 54302 ft 1164 kts 344°
2026-05-05 20:07 56.09271 2.36703 54453 ft 1163 kts 339°
2026-05-05 20:07 56.16804 2.31374 54604 ft 1162 kts 334°
2026-05-05 20:07 56.24033 2.24846 54755 ft 1161 kts 329°
2026-05-05 20:07 56.30865 2.17211 54905 ft 1160 kts 324°
2026-05-05 20:08 56.37328 2.08436 55044 ft 1159 kts 319°
2026-05-05 20:08 56.43464 1.98973 55189 ft 1160 kts 321°
2026-05-05 20:08 56.49870 1.90143 55334 ft 1161 kts 324°
2026-05-05 20:08 56.56517 1.81823 55482 ft 1161 kts 324°
2026-05-05 20:09 56.63141 1.73458 55624 ft 1161 kts 326°
2026-05-05 20:09 56.69910 1.65338 55763 ft 1161 kts 327°
2026-05-05 20:09 56.76718 1.57435 55914 ft 1162 kts 327°
2026-05-05 20:09 56.83569 1.49613 56064 ft 1162 kts 328°
2026-05-05 20:10 56.90432 1.41835 56215 ft 1161 kts 328°
2026-05-05 20:10 56.97301 1.34065 56365 ft 1161 kts 328°
2026-05-05 20:10 57.04185 1.26267 56513 ft 1161 kts 328°
2026-05-05 20:11 57.17850 1.10677 56498 ft 1134 kts 328°
2026-05-05 20:11 57.24419 1.03011 56495 ft 1102 kts 325°
2026-05-05 20:11 57.30494 0.94760 56491 ft 1070 kts 319°
2026-05-05 20:11 57.35963 0.85668 56495 ft 1039 kts 314°
2026-05-05 20:12 57.40754 0.75904 56501 ft 1009 kts 308°
2026-05-05 20:12 57.44849 0.65569 56504 ft 979 kts 302°
2026-05-05 20:12 57.48211 0.54834 56506 ft 948 kts 295°
2026-05-05 20:12 57.50830 0.43816 56508 ft 916 kts 289°
2026-05-05 20:13 57.52693 0.32676 56484 ft 886 kts 282°
2026-05-05 20:13 57.53817 0.21615 56205 ft 861 kts 276°
2026-05-05 20:13 57.54284 0.10612 55082 ft 846 kts 269°
2026-05-05 20:13 57.54037 -0.00198 54011 ft 826 kts 264°
2026-05-05 20:14 57.53373 -0.10709 53021 ft 808 kts 262°
2026-05-05 20:14 57.52534 -0.20928 52031 ft 790 kts 261°
2026-05-05 20:14 57.51610 -0.30891 51059 ft 773 kts 260°
2026-05-05 20:14 57.50642 -0.40627 50099 ft 757 kts 259°
2026-05-05 20:15 57.49651 -0.50131 49162 ft 741 kts 259°
2026-05-05 20:15 57.48644 -0.59417 48224 ft 726 kts 259°
2026-05-05 20:15 57.47627 -0.68533 47279 ft 712 kts 258°
2026-05-05 20:15 57.46607 -0.77455 46350 ft 699 kts 258°
2026-05-05 20:16 57.45579 -0.86213 45438 ft 687 kts 258°
2026-05-05 20:16 57.44552 -0.94771 44563 ft 675 kts 258°
2026-05-05 20:16 57.43522 -1.03200 43715 ft 663 kts 258°
2026-05-05 20:16 57.42489 -1.11476 42965 ft 651 kts 257°
2026-05-05 20:17 57.41456 -1.19577 42270 ft 639 kts 257°
2026-05-05 20:17 57.40427 -1.27493 41592 ft 627 kts 257°
2026-05-05 20:17 57.39413 -1.35180 40925 ft 616 kts 257°
2026-05-05 20:17 57.38385 -1.42816 40263 ft 605 kts 256°
2026-05-05 20:18 57.37356 -1.50310 39581 ft 594 kts 256°
2026-05-05 20:18 57.36333 -1.57635 38782 ft 581 kts 256°
2026-05-05 20:18 57.35322 -1.64777 37856 ft 566 kts 256°
2026-05-05 20:18 57.34321 -1.71721 36823 ft 551 kts 256°
2026-05-05 20:19 57.33327 -1.78491 35814 ft 536 kts 255°
2026-05-05 20:19 57.32349 -1.85053 34923 ft 523 kts 255°
2026-05-05 20:19 57.31383 -1.91454 34201 ft 512 kts 255°
2026-05-05 20:19 57.30419 -1.97759 33565 ft 505 kts 255°
2026-05-05 20:20 57.29459 -2.03968 33201 ft 502 kts 255°
2026-05-05 20:20 57.28485 -2.10181 32991 ft 502 kts 255°
2026-05-05 20:20 57.27504 -2.16358 32833 ft 502 kts 254°
2026-05-05 20:20 57.26501 -2.22524 32731 ft 501 kts 253°
2026-05-05 20:21 57.25176 -2.28442 32414 ft 495 kts 242°
2026-05-05 20:21 57.23127 -2.33552 30865 ft 500 kts 227°
2026-05-05 20:21 57.20547 -2.37833 29676 ft 498 kts 224°
2026-05-05 20:21 57.17894 -2.41866 28749 ft 491 kts 222°
2026-05-05 20:22 57.15231 -2.45769 27751 ft 487 kts 221°
2026-05-05 20:22 57.12566 -2.49581 26760 ft 482 kts 221°
2026-05-05 20:22 57.09917 -2.53303 25759 ft 477 kts 220°
2026-05-05 20:22 57.07279 -2.56953 24742 ft 472 kts 220°
2026-05-05 20:23 57.04659 -2.60529 23734 ft 468 kts 220°
2026-05-05 20:23 57.02049 -2.64042 22756 ft 462 kts 219°
2026-05-05 20:23 56.99451 -2.67473 21780 ft 457 kts 219°
2026-05-05 20:23 56.96879 -2.70784 21014 ft 446 kts 218°
2026-05-05 20:24 56.94356 -2.73975 20341 ft 434 kts 218°
2026-05-05 20:24 56.91892 -2.77068 19652 ft 423 kts 218°
2026-05-05 20:24 56.89520 -2.80053 19152 ft 406 kts 218°
2026-05-05 20:24 56.87240 -2.82935 18796 ft 397 kts 218°
2026-05-05 20:25 56.84966 -2.85827 18316 ft 399 kts 219°
2026-05-05 20:25 56.82721 -2.88684 17953 ft 383 kts 219°
2026-05-05 20:25 56.80588 -2.91382 17555 ft 362 kts 219°
2026-05-05 20:25 56.78574 -2.93919 17109 ft 343 kts 219°
2026-05-05 20:26 56.76636 -2.96362 16552 ft 339 kts 219°
2026-05-05 20:26 56.74696 -2.98816 15757 ft 338 kts 219°
2026-05-05 20:26 56.72771 -3.01243 14783 ft 335 kts 218°
2026-05-05 20:26 56.70862 -3.03632 13767 ft 333 kts 218°
2026-05-05 20:27 56.68960 -3.06016 12892 ft 330 kts 218°
2026-05-05 20:27 56.67081 -3.08372 12143 ft 328 kts 218°
2026-05-05 20:27 56.65249 -3.10667 11433 ft 320 kts 218°
2026-05-05 20:27 56.63443 -3.12918 10786 ft 300 kts 217°
2026-05-05 20:28 56.61796 -3.14954 10340 ft 280 kts 217°
2026-05-05 20:28 56.60200 -3.16919 9921 ft 276 kts 217°
2026-05-05 20:28 56.58612 -3.18874 9501 ft 275 kts 216°
2026-05-05 20:28 56.57032 -3.20819 9082 ft 274 kts 216°
2026-05-05 20:29 56.55462 -3.22759 8664 ft 273 kts 216°
2026-05-05 20:29 56.53886 -3.24701 8243 ft 272 kts 216°
2026-05-05 20:29 56.52328 -3.26624 7823 ft 270 kts 215°
2026-05-05 20:29 56.51276 -3.27916 7541 ft 270 kts 215°
2026-05-05 20:30 56.49726 -3.29820 7174 ft 268 kts 215°
2026-05-05 20:30 56.48217 -3.31737 7134 ft 269 kts 217°
2026-05-05 20:30 56.46709 -3.33738 7138 ft 268 kts 217°
2026-05-05 20:30 56.45182 -3.35750 7139 ft 268 kts 216°
2026-05-05 20:31 56.43672 -3.37736 7140 ft 268 kts 216°
2026-05-05 20:31 56.42184 -3.39692 7140 ft 268 kts 216°
2026-05-05 20:31 56.40659 -3.41699 7140 ft 268 kts 217°
2026-05-05 20:31 56.39200 -3.43735 7140 ft 268 kts 218°
2026-05-05 20:32 56.37746 -3.45828 7140 ft 267 kts 219°
2026-05-05 20:32 56.36751 -3.47272 7140 ft 267 kts 219°
2026-05-05 20:32 56.35284 -3.49335 7140 ft 267 kts 218°
2026-05-05 20:32 56.33808 -3.51368 7140 ft 268 kts 217°
2026-05-05 20:33 56.32325 -3.53402 7140 ft 268 kts 217°
2026-05-05 20:33 56.30844 -3.55430 7140 ft 268 kts 217°
2026-05-05 20:33 56.29401 -3.57478 7136 ft 268 kts 224°
2026-05-05 20:33 56.28082 -3.59910 7141 ft 268 kts 227°
2026-05-05 20:34 56.26826 -3.62369 7141 ft 267 kts 228°
2026-05-05 20:34 56.25526 -3.64743 7141 ft 267 kts 223°
2026-05-05 20:34 56.24148 -3.66992 7141 ft 268 kts 222°
2026-05-05 20:34 56.22757 -3.69215 7141 ft 268 kts 221°
2026-05-05 20:35 56.21359 -3.71434 7141 ft 268 kts 221°
2026-05-05 20:35 56.19963 -3.73646 7141 ft 268 kts 221°
2026-05-05 20:35 56.18568 -3.75855 7140 ft 267 kts 221°
2026-05-05 20:35 56.17175 -3.78060 7140 ft 267 kts 221°
2026-05-05 20:36 56.15786 -3.80260 7140 ft 267 kts 221°
2026-05-05 20:36 56.14394 -3.82462 7140 ft 267 kts 221°
2026-05-05 20:36 56.12998 -3.84669 7141 ft 267 kts 221°
2026-05-05 20:36 56.11606 -3.86870 7141 ft 267 kts 221°
2026-05-05 20:37 56.10274 -3.88975 7141 ft 267 kts 221°
2026-05-05 20:37 56.08727 -3.91024 7123 ft 267 kts 199°
2026-05-05 20:37 56.06904 -3.91514 7146 ft 266 kts 180°
2026-05-05 20:37 56.05057 -3.91529 7145 ft 265 kts 179°
2026-05-05 20:38 56.03280 -3.91499 7053 ft 248 kts 178°
2026-05-05 20:38 56.01587 -3.91462 6778 ft 241 kts 179°
2026-05-05 20:38 55.99906 -3.91429 6379 ft 241 kts 178°
2026-05-05 20:38 55.98236 -3.91411 5996 ft 239 kts 178°
2026-05-05 20:39 55.96582 -3.91409 5555 ft 237 kts 178°
2026-05-05 20:39 55.94939 -3.91425 5057 ft 234 kts 178°
2026-05-05 20:39 55.93344 -3.91459 4549 ft 226 kts 178°
2026-05-05 20:39 55.91809 -3.91511 4083 ft 214 kts 178°
2026-05-05 20:40 55.90388 -3.91574 4010 ft 200 kts 178°
2026-05-05 20:40 55.89002 -3.91637 3990 ft 200 kts 178°
2026-05-05 20:40 55.87631 -3.91403 3972 ft 197 kts 150°
2026-05-05 20:40 55.86662 -3.89809 4011 ft 189 kts 121°
2026-05-05 20:41 55.85965 -3.87826 4001 ft 188 kts 118°
2026-05-05 20:41 55.85293 -3.85829 3994 ft 188 kts 118°
2026-05-05 20:41 55.84636 -3.83828 3986 ft 189 kts 113°
2026-05-05 20:41 55.84375 -3.81572 4001 ft 187 kts 90°
2026-05-05 20:42 55.84374 -3.79269 3989 ft 186 kts 89°
2026-05-05 20:42 55.84397 -3.76965 3988 ft 185 kts 88°
2026-05-05 20:42 55.84424 -3.74676 3986 ft 186 kts 88°
2026-05-05 20:42 55.84451 -3.72374 3999 ft 186 kts 89°
2026-05-05 20:43 55.84479 -3.70070 3984 ft 186 kts 88°
2026-05-05 20:43 55.84686 -3.67822 3784 ft 185 kts 60°
2026-05-05 20:43 55.85333 -3.65842 3585 ft 185 kts 62°
2026-05-05 20:43 55.85967 -3.63849 3356 ft 186 kts 61°
2026-05-05 20:44 55.86637 -3.61872 3114 ft 186 kts 60°
2026-05-05 20:44 55.87308 -3.59907 2865 ft 185 kts 60°
2026-05-05 20:44 55.87975 -3.57949 2612 ft 185 kts 60°
2026-05-05 20:44 55.88633 -3.56008 2370 ft 185 kts 60°
2026-05-05 20:45 55.89970 -3.52069 1868 ft 186 kts 60°
2026-05-05 20:45 55.90648 -3.50072 1623 ft 189 kts 60°
2026-05-05 20:45 55.91328 -3.48066 1372 ft 188 kts 60°
2026-05-05 20:46 55.91959 -3.46210 1137 ft 162 kts 60°
2026-05-05 20:46 55.92531 -3.44518 928 ft 158 kts 60°
2026-05-05 20:46 55.93094 -3.42852 711 ft 157 kts 60°
2026-05-05 20:46 55.93672 -3.41198 456 ft 157 kts 60°
2026-05-05 20:47 55.94233 -3.39534 243 ft 157 kts 60°
2026-05-05 20:47 55.94766 -3.37948 168 ft 136 kts 60°
2026-05-05 20:47 55.95192 -3.36693 147 ft 88 kts 59°
2026-05-05 20:47 55.95386 -3.36106 147 ft 39 kts 58°
2026-05-05 20:48 55.95485 -3.35821 147 ft 11 kts 59°
2026-05-05 20:48 55.95519 -3.35716 147 ft 11 kts 59°
2026-05-05 20:48 55.95566 -3.35574 147 ft 13 kts 62°
2026-05-05 20:48 55.95548 -3.35488 147 ft 8 kts 152°
2026-05-05 20:49 55.95483 -3.35423 147 ft 11 kts 150°
2026-05-05 20:49 55.95446 -3.35416 147 ft 8 kts 198°
2026-05-05 20:49 55.95395 -3.35509 147 ft 14 kts 238°
2026-05-05 20:49 55.95335 -3.35682 147 ft 19 kts 238°
2026-05-05 20:50 55.95269 -3.35881 147 ft 17 kts 239°
2026-05-05 20:50 55.95202 -3.36081 147 ft 17 kts 237°
2026-05-05 20:50 55.95143 -3.36251 147 ft 13 kts 240°
2026-05-05 20:50 55.95094 -3.36384 147 ft 11 kts 214°
2026-05-05 20:51 55.95030 -3.36404 147 ft 7 kts 200°
2026-05-05 20:51 55.94984 -3.36399 147 ft 7 kts 157°
2026-05-05 20:51 55.94954 -3.36371 147 ft 2 kts 150°
2026-05-05 20:51 55.94952 -3.36369 147 ft 1 kts 150°
2026-05-05 20:52 55.94951 -3.36368 147 ft 0 kts 150°